Location: Buckland
(65.9785°N, 161.1281°W)
Time: 20:57:34
(UTC+00:00)

PRISM - Pass Details

Date: 20 January 2021
Orbit: 565 x 584 km, 98.2° (Epoch: 06 March)

Event Time Altitude Azimuth Distance (km) Brightness Sun altitude
Rises 14:39:33 0° 21° (NNE) 2,786 ? -31.8°
Reaches altitude 10° 14:41:43 10° 18° (NNE) 1,886 ? -31.5°
Enters shadow 14:42:32 16° 17° (NNE) 1,555 ? -31.5°
